Location: Cabrera Baja
(40.4089°N, 4.3354°W)
Time: 02:39:55
(UTC+00:00)

Cosmos 2016 Rocket - Pass Details

Date: 14 July 2020
Orbit: 948 x 999 km, 83.0° (Epoch: 03 August)

Event Time Altitude Azimuth Distance (km) Brightness Sun altitude
Exits shadow 01:53:41 48° 164° (SSE) 1,230 4.2 -24.5°
Maximum altitude 01:55:27 74° 94° (E) 1,000 4.0 -24.4°
Drops below altitude 10° 02:01:38 10° 11° (N) 2,720 7.3 -23.9°
Sets 02:04:10 0° 10° (N) 3,679 8.3 -23.7°
